Location: *
(29.1167°S, 130.0000°E)
Time: 20:00:39
(UTC+00:00)

SMAP - Pass Details

Date: 21 July 2019
Orbit: 681 x 683 km, 98.1° (Epoch: 25 August)

Event Time Altitude Azimuth Distance (km) Brightness Sun altitude
Rises 09:52:57 0° 176° (S) 3,072 6.2 -15.3°
Reaches altitude 10° 09:55:15 10° 181° (S) 2,150 5.5 -15.8°
Maximum altitude 09:59:47 49° 254° (WSW) 885 4.0 -16.8°
Drops below altitude 10° 10:04:16 10° 329° (NNW) 2,124 6.2 -17.7°
Sets 10:06:33 0° 334° (NNW) 3,032 7.0 -18.2°
